Location: *
(6.1770°N, 170.5260°W)
Time: 15:44:06
(UTC+00:00)

Daily predictions for brighter satellites

Satellite Brightness Start Highest point End
(mag) Time Altitude Azimuth Time Altitude Azimuth Time Altitude Azimuth
ARIANE 5 R/B 3.6 14:17:51 80° SSE 14:17:51 80° SSE 15:10:51 10° E
USA 267 4.2 14:25:42 10° ENE 14:31:34 36° SE 14:31:38 36° SE
Ariane H10-3 3.6 14:35:16 53° E 14:35:16 53° E 14:46:38 10° E
Okean O Rocket 4.3 14:35:02 10° ENE 14:37:11 13° E 14:37:53 13° ESE
Ariane H10+ 4.3 14:40:02 74° SW 14:40:56 79° S 15:02:21 10° E
Ariane H10-3 4.3 14:48:48 22° SE 14:48:48 22° SE 14:53:24 10° ESE
Palapa 6 Rocket 4.2 14:48:36 84° WNW 14:48:56 90° S 14:56:20 10° ESE
Cosmos 1697 Rocket 3.1 14:50:52 58° NNE 14:50:52 58° NNE 14:55:20 10° NNE
ATLAS 2A CENTAUR R/B 4.5 14:47:30 24° NW 14:49:59 27° NNW 14:55:25 10° NNE
BREEZE-M DEB 3.9 15:03:34 75° SSW 15:04:07 88° ESE 15:19:40 10° NE
CZ-3 R/B 3.7 14:52:30 39° WSW 15:06:29 79° NNW 15:15:40 10° NE
Cosmos 1271 Rocket 4.1 15:10:57 35° NNE 15:10:57 35° NNE 15:13:18 10° N
FUSE 3.8 15:13:48 85° SE 15:13:48 85° SE 15:19:09 10° ENE
Cosmos 1980 Rocket 2.2 15:13:44 59° S 15:14:45 76° ESE 15:20:19 10° NNE
Cosmos 1782 Rocket 3.9 15:16:03 60° ESE 15:16:23 63° E 15:20:45 10° NNE
Cosmos 2219 3.8 15:10:55 10° N 15:16:24 55° ENE 15:21:52 10° SSE
ASTEX 1 4.3 15:20:55 35° NW 15:20:55 35° NW 15:23:58 10° NNW
Lacrosse 5 rocket 2.0 15:19:30 48° ESE 15:19:34 48° ESE 15:23:44 10° NE
Cosmos 2173 Rocket 4.1 15:14:33 10° N 15:20:35 69° E 15:26:41 10° S
COSMOS 2455 3.0 15:19:52 10° NNW 15:25:49 70° ENE 15:31:46 10° SSE
BLOCK DM-SL R/B 3.4 15:27:14 41° S 15:27:14 41° S 15:31:14 10° ESE
Tiangong 2 3.6 15:30:07 13° ESE 15:30:07 13° ESE 15:30:48 10° E
Cosmos 1818 3.6 15:27:24 10° NW 15:32:39 52° WSW 15:37:54 10° S
Delta 168 2.8 15:32:30 72° W 15:32:57 85° NNW 15:38:32 10° ENE
CZ-4B R/B 3.4 15:27:34 10° NNE 15:32:57 68° ESE 15:36:59 19° S
Meteor 1-31 Rocket 2.7 15:30:19 10° NNE 15:34:13 85° ESE 15:34:48 63° S
NOSS 2-1 (E) 3.2 15:35:43 65° WNW 15:35:43 65° WNW 15:39:17 10° NNE
Cosmos 1378 Rocket 4.1 15:33:18 10° N 15:37:39 57° E 15:42:01 10° SSE
OAO 3 Rocket 2.9 15:36:43 51° WNW 15:37:46 72° SW 15:42:24 10° SE
ARIANE 5 DEB (SYLDA) 4.5 15:38:59 34° W 15:41:40 88° N 16:02:08 10° E
Cosmos 540 Rocket 3.8 15:36:55 10° NNW 15:41:31 41° W 15:41:31 41° W
ARIANE 5 DEB (SYLDA) 4.4 15:41:52 32° SW 15:42:51 34° SSW 15:46:12 10° SE
Meteor PRIRODA 3.6 15:43:29 10° N 15:47:03 60° WNW 15:47:25 56° WSW
Cosmos 2297 Rocket 3.9 15:42:36 10° N 15:47:39 34° ENE 15:52:41 10° SE
Cosmos 1802 Rocket 3.8 15:41:35 10° N 15:47:45 78° W 15:53:52 10° S
Cosmos 2061 Rocket 3.9 15:41:53 10° N 15:48:07 79° W 15:54:28 10° S
Ariane H10 3.5 15:47:15 40° SW 15:48:23 57° SSE 15:59:11 10° E
Cosmos 2016 Rocket 4.0 15:42:11 10° N 15:48:31 85° E 15:54:48 10° S
Meteor 2-12 Rocket 4.4 15:43:04 10° NNW 15:49:01 58° W 15:54:57 10° S
GPS 2-18 Rocket1 3.3 15:50:06 48° SW 15:50:32 51° SSW 15:54:25 10° SE
Okean 3 3.7 15:47:49 10° NNW 15:51:49 44° W 15:52:47 37° SW
Cosmos 1674 Rocket 4.0 15:51:18 10° NNW 15:55:17 38° W 15:56:08 34° WSW
Cosmos 2227 Rocket 3.2 15:50:08 10° N 15:55:33 48° ENE 16:00:58 10° SSE
CZ-4B DEB 4.5 15:52:15 10° N 15:57:29 48° WNW 16:00:48 22° SW
CZ-4B R/B 4.3 15:54:43 10° N 15:58:28 40° WNW 15:59:28 33° WSW
PAYLOAD A 4.1 15:53:44 10° NNE 15:58:36 73° ESE 16:03:40 10° S
Spelda 3.6 15:58:41 30° S 15:58:50 31° S 16:01:59 10° ESE
Meteor 1-5 Rocket 4.1 15:54:32 10° S 16:00:02 85° W 16:05:43 10° N
ARIANE 44LP R/B 4.1 15:59:52 13° S 16:01:00 15° SSE 16:04:18 10° ESE
Meteor 1-18 Rocket 4.3 15:57:18 10° NNW 16:02:41 53° W 16:08:05 10° S
Atlas Centaur 2 3.1 16:04:49 16° WNW 16:07:20 26° NNW 16:11:40 10° NNE
Cosmos 1898 Rocket 4.0 16:04:28 10° S 16:09:35 61° ESE 16:14:42 10° NNE
SeaSat 1 3.3 16:06:02 10° SE 16:10:50 55° ENE 16:15:38 10° N
ATLAS 3B CENTAUR R/B 4.0 16:11:45 10° NNE 16:12:28 11° NE 16:13:18 10° NE
Cosmos 1975 Rocket 3.4 16:08:44 10° N 16:13:11 69° E 16:17:38 10° S
Okean O Rocket 2.7 16:09:34 10° NNW 16:13:18 27° WNW 16:15:21 19° WSW
USA 267 4.1 16:08:34 10° NNE 16:14:19 35° NW 16:19:00 15° WSW
NOAA 6 4.1 16:09:19 10° NNE 16:14:27 81° ESE 16:19:35 10° S
Cosmos 1356 4.2 16:12:00 10° N 16:15:23 54° E 16:18:46 10° SSE
Centaur D-1AR AC-39 3.3 16:12:20 10° NW 16:15:52 47° NNE 16:25:41 10° E
IDEFIX/ARIANE 42P 2.7 16:11:13 10° N 16:16:17 55° WNW 16:21:21 10° SSW
Cosmos 1725 Rocket 4.0 16:12:35 10° N 16:18:51 71° W 16:25:05 10° S
Meteor 1-11 Rocket 4.3 16:15:50 13° SW 16:20:04 34° W 16:25:00 10° NNW
Cosmos 2322 Rocket 2.2 16:16:45 10° SSW 16:22:26 88° ESE 16:28:04 10° NNE
Okean 2 Rocket 4.1 16:22:09 14° SW 16:25:03 26° W 16:28:44 10° NNW
Cosmos 2233 Rocket 4.2 16:20:44 10° N 16:26:59 76° E 16:33:11 10° S
CZ-2C R/B 2.5 16:21:59 10° N 16:27:08 76° WNW 16:32:19 10° SSW
Meteor 1-13 Rocket 4.3 16:21:58 10° N 16:27:29 81° E 16:33:00 10° S
Meteor 1-19 Rocket 4.1 16:22:16 10° NNW 16:27:43 70° W 16:33:15 10° S
Cosmos 2082 3.9 16:22:35 10° N 16:28:11 74° ENE 16:33:45 10° SSE
Cosmos 1937 Rocket 3.8 16:24:21 10° S 16:29:30 68° ESE 16:34:36 10° NNE
Ariane H10 2.1 16:27:48 16° WSW 16:29:31 56° S 16:35:01 10° E
Cosmos 1536 3.9 16:26:39 12° SW 16:29:46 26° W 16:33:10 10° NNW
ATLAS 5 CENTAUR R/B 2.8 16:26:40 10° W 16:33:28 26° SSW 16:36:59 10° SSE
Aureole 2 Rocket 2.7 16:37:24 10° SSW 16:40:57 50° WNW 16:44:16 10° N
Cosmos 1300 Rocket 3.7 16:37:12 10° SSW 16:41:32 54° W 16:45:48 10° N
Cosmos 1500 3.7 16:38:51 10° SSW 16:42:27 40° W 16:46:03 10° NNW
Cosmos 1340 Rocket 3.0 16:39:17 10° NNW 16:43:02 47° W 16:46:48 10° S
Delta 198 3.1 16:39:53 10° WNW 16:43:32 86° SSW 16:47:37 10° ESE
Genesis I 3.2 16:41:23 10° NNW 16:45:19 61° WSW 16:49:11 10° SSE
Delta 7925 Rocket 4.2 16:39:30 10° WSW 16:45:26 79° NNW 16:53:12 10° ENE
Cosmos 2298 Rocket 4.3 16:40:48 10° S 16:46:05 76° ESE 16:51:23 10° NNE
ARIANE 5 DEB (SYLDA) 4.4 16:35:00 10° W 16:47:16 48° S 16:51:04 10° ESE
SL-16 R/B 2.7 16:43:53 10° SW 16:49:12 43° WNW 16:54:33 10° N
Cosmos 990 Rocket 4.0 16:44:19 10° SSW 16:49:24 67° WNW 16:54:30 10° N
Ariane H10+ 3.7 16:39:04 10° W 16:58:44 67° S 17:03:11 10° E
ATLAS 2A CENTAUR R/B 3.9 16:54:41 10° WNW 17:12:37 36° SW 17:17:32 10° SSE
